Misión y Visión

La misión es proporcionar información fiable a la navegación aérea, contribuyendo a la seguridad, regularidad y eficiencia de la Navegación Aérea Internacional

La visión es contribuir sustancialmente al desarrollo de conocimientos y a la utilización de la meteorología aeronáutica a nivel nacional e internacional, mediante la innovación y la coparticipación con sectores sociales y productivos de la sociedad.

 
  Inicio
  Metar
  Taf
  Wintemp
  SIGMET
  Avisos
  Pronósticos
  Carpeta Meteorologica
  Imágenes Satelitales
  Climatología Aeronáutica
   
  ¿Quienes Somos?
  Contacto
  Eventos
  Publicaciones
  Politica de la Calidad
Taf


DIRECCIONES PARA INFORMES NACIONALES E INTERNACIONALES
(Metar /Speci - TAF)

http://adds.aviationweather.gov/tafs/index.php

http://www.ogimet.com/metars.phtml

PRONÓSTICOS DE AERÓDROMO

Cuando sea necesario, el encabezamiento abreviado puede incluir un cuarto grupo consistente en tres letras para identificar los boletines demorados (RRA), corregidos (CCA) o enmendados (AAA). Los boletines adicionales demorados, corregidos o enmendados deben identificarse con las letras RRB, RRC, etc.; CCB, CCC,etc.;AAB, AAC,etc.

 

DÍA 25/07/2014

 

TAF

MPTO

TAF MPTO 251000Z 2512/2612 00000KT 9999 SCT018 
PROB30 TEMPO 2518/2522 06004KT 7000 -TSRA SCT015CB BKN090 
BECMG 2522/2602 03006KT 9999 NSW SCT018 BKN090

TAF

MPPA(MPHO)

TAF MPPA 251000Z 2512/2612 36005KT 9999 SCT018 PROB30 TEMPO 2518/2522 7000 -TSRA SCT015CB BKN090 BECMG 2502/2602 27006KT 9999 NSW SCT018 SCT090

TAF

MPMG

TAF MPMG 240400Z 2506/2518 33003KT 9999 SCT018 
TEMPO 2516/2518 19003KT 9000 SCT016 SCT090

TAF

MPDA

TAF MPDA 240400Z 2506/2518 00000KT 9999 SCT018 BKN090 
BECMG 2514/2518 27006KT 9999 FEW018 SCT090 

 
 











  Noticias AAC
  Directorio
  Contáctenos
  Historia
  Quejas y Sugerencias
  Etica y Transparencia

  Gestión SSP/SMS
  Seguridad Aérea
  Navegación Aérea
  Transporte Aéreo

  Tramites
  Áeronaves de Alquiler

  Meteorología
  I.S.F.P.A
  Notam
  Peligro Aviario
  AVSEC
  UPIA
  Permisos
 




DECLARACIÓN DE PRIVACIDAD